Regional Weather Roundup
Issued by NWS Little Rock, AR

Home | Current Version | Previous Version | Text Only | Print | Product List | Glossary Off
Versions: 1 2 3 4 5 6 7 8 9 10 11 12 13 14 15 16 17 18 19 20 21 22 23 24 25 26 27 28 29

000
ASUS44 KLZK 291305
RWRLZK

WEATHER ROUNDUP FOR ARKANSAS
NATIONAL WEATHER SERVICE LITTLE ROCK AR
800 AM CDT WED OCT 29 2014

NOTE: "FAIR" INDICATES FEW OR NO CLOUDS BELOW 12,000 FEET WITH NO
SIGNIFICANT WEATHER AND/OR OBSTRUCTIONS TO VISIBILITY.

ARZ001-003-010-029-291400-
NORTHWEST ARKANSAS

CITY           SKY/WX    TMP DP  RH WIND       PRES   REMARKS
FAYETTEVILLE     N/A     37  36  96 CALM      30.23R
FORT SMITH     CLEAR     45  42  89 CALM      30.22R
HARRISON       CLEAR     43  38  82 CALM      30.20R
BENTONVILLE    CLEAR     39  37  93 CALM      30.21S
ROGERS         CLEAR     42  39  89 CALM      30.22R
SILOAM SPGS    CLEAR     39  34  81 SE3       30.23R
HIGHFILL       CLEAR     40  38  93 CALM      30.21R
SPRINGDALE     CLEAR     41  39  93 CALM      30.24R
$$

ARZ004-005-016-291400-
NORTH CENTRAL ARKANSAS

CITY           SKY/WX    TMP DP  RH WIND       PRES   REMARKS
BATESVILLE     CLEAR     46  43  87 CALM      30.20R
FLIPPIN        CLEAR     39  34  81 CALM      30.21R
MTN HOME       CLEAR     44  42  93 CALM      30.19R
$$

ARZ040-041-291400-
WEST CENTRAL ARKANSAS

CITY           SKY/WX    TMP DP  RH WIND       PRES   REMARKS
MENA           MOCLDY    45  45 100 CALM      30.21R VSB 1
MOUNT IDA      CLEAR     45  44  97 CALM      30.18R FOG
$$

ARZ009-017-025-026-028-291400-
NORTHEAST ARKANSAS

CITY           SKY/WX    TMP DP  RH WIND       PRES   REMARKS
CORNING        FAIR      45  45 100 W3        30.19R
JONESBORO      CLOUDY    45  45 100 CALM      30.18R
NEWPORT        CLEAR     47  47 100 CALM      30.20R
WALNUT RIDGE   CLEAR     45  43  93 NW6       30.19R
BLYTHEVILLE    FOG       49  48  97 S5        30.18R VSB 1/4
$$

ARZ022-023-033-042-044-291400-
CENTRAL ARKANSAS

CITY           SKY/WX    TMP DP  RH WIND       PRES   REMARKS
LITTLE ROCK    PTCLDY    52  47  83 N3        30.20R
N LITTLE ROCK    N/A     52  49  90 NW6       30.20R
JACKSONVILLE   CLEAR     44  44  98 SW3       30.20R
SEARCY         CLEAR     45  45 100 CALM      30.21R FOG
HOT SPRINGS    LGT RAIN  47  45  93 CALM      30.20R
RUSSELLVILLE   CLEAR     44  42  93 CALM      30.21R
$$

ARZ036-291400-
EAST ARKANSAS

CITY           SKY/WX    TMP DP  RH WIND       PRES   REMARKS
WEST MEMPHIS   CLEAR     49  49 100 CALM      30.18R FOG
$$

ARZ050-053-066-070-073-291400-
SOUTHWEST ARKANSAS

CITY           SKY/WX    TMP DP  RH WIND       PRES   REMARKS
ARKADELPHIA    FOG       49  49 100 CALM      30.21R VSB<1/4
CAMDEN         PTCLDY    54  52  94 CALM      30.19R
TEXARKANA      CLEAR     52  51  97 CALM      30.19R
EL DORADO      CLOUDY    56  54  93 N5        30.18R
DE QUEEN       FOG       46  46 100 CALM      30.18R VSB 1/4
$$

ARZ056-057-069-291400-
SOUTHEAST ARKANSAS

CITY           SKY/WX    TMP DP  RH WIND       PRES   REMARKS
PINE BLUFF     MOCLDY    53  51  93 N10       30.20R FOG
STUTTGART      CLOUDY    52  50  93 N6        30.20R VSB 1/4
MONTICELLO     CLOUDY    55  52  89 N5        30.17R

$$





USA.gov is the U.S. government's official web portal to all federal, state and local government web resources and services.